| time (UTC) | temp C | wind direction | speed KPH | gust KPH | rain 1hr cm | rain 24hr cm | rain mn cm | humidity % | barometer mb |
| 20260507195608 | 28 | 109 | 9.7 | 20.9 | 0.00 | 0.00 | 0.00 | 72 | 1016.3 |
| 20260507195106 | 28 | 104 | 12.9 | 24.1 | 0.00 | 0.00 | 0.00 | 71 | 1016.4 |
| 20260507194602 | 28 | 123 | 14.5 | 20.9 | 0.00 | 0.00 | 0.00 | 69 | 1016.4 |
| 20260507194057 | 29 | 73 | 9.7 | 27.4 | 0.00 | 0.00 | 0.00 | 71 | 1016.5 |
| 20260507193555 | 29 | 93 | 8.0 | 24.1 | 0.00 | 0.00 | 0.00 | 72 | 1016.6 |
| 20260507193052 | 28 | 91 | 14.5 | 20.9 | 0.00 | 0.00 | 0.00 | 71 | 1016.5 |
| 20260507192548 | 29 | 85 | 14.5 | 25.7 | 0.00 | 0.00 | 0.00 | 71 | 1016.6 |
| 20260507192045 | 29 | 104 | 11.3 | 20.9 | 0.00 | 0.00 | 0.00 | 70 | 1016.7 |
| 20260507191540 | 29 | 149 | 11.3 | 17.7 | 0.00 | 0.00 | 0.00 | 71 | 1016.6 |
| 20260507191038 | 29 | 101 | 8.0 | 17.7 | 0.00 | 0.00 | 0.00 | 71 | 1016.6 |
| 20260507190535 | 29 | 142 | 9.7 | 17.7 | 0.00 | 0.00 | 0.00 | 70 | 1016.7 |
| 20260507190034 | 29 | 129 | 11.3 | 22.5 | 0.00 | 0.00 | 0.00 | 70 | 1016.7 |
| 20260507185531 | 29 | 109 | 17.7 | 20.9 | 0.00 | 0.00 | 0.00 | 71 | 1016.8 |
| 20260507185028 | 29 | 67 | 11.3 | 17.7 | 0.00 | 0.00 | 0.00 | 69 | 1016.9 |
| 20260507184526 | 29 | 146 | 8.0 | 17.7 | 0.00 | 0.00 | 0.00 | 71 | 1016.7 |
| 20260507184024 | 29 | 139 | 14.5 | 22.5 | 0.00 | 0.00 | 0.00 | 70 | 1016.9 |
| 20260507183519 | 29 | 105 | 16.1 | 25.7 | 0.00 | 0.00 | 0.00 | 72 | 1016.9 |
| 20260507183017 | 29 | 157 | 14.5 | 20.9 | 0.00 | 0.00 | 0.00 | 73 | 1016.9 |
| 20260507182513 | 29 | 104 | 9.7 | 20.9 | 0.00 | 0.00 | 0.00 | 73 | 1017.1 |
| 20260507182009 | 29 | 135 | 19.3 | 24.1 | 0.00 | 0.00 | 0.00 | 71 | 1017.0 |
| 20260507181506 | 29 | 141 | 11.3 | 16.1 | 0.00 | 0.00 | 0.00 | 69 | 1017.1 |
| 20260507181002 | 29 | 230 | 6.4 | 16.1 | 0.00 | 0.00 | 0.00 | 71 | 1017.2 |
| 20260507180458 | 29 | 88 | 12.9 | 16.1 | 0.00 | 0.00 | 0.00 | 72 | 1017.2 |
| 20260507175954 | 29 | 108 | 17.7 | 22.5 | 0.00 | 0.00 | 0.00 | 73 | 1017.4 |
| 20260507175451 | 30 | 157 | 9.7 | 20.9 | 0.00 | 0.00 | 0.00 | 72 | 1017.5 |
| 20260507174949 | 30 | 57 | 14.5 | 17.7 | 0.00 | 0.00 | 0.00 | 71 | 1017.5 |
| 20260507174446 | 29 | 74 | 11.3 | 22.5 | 0.00 | 0.00 | 0.00 | 72 | 1017.6 |
| 20260507173943 | 29 | 59 | 17.7 | 25.7 | 0.00 | 0.00 | 0.00 | 71 | 1017.5 |
| 20260507173440 | 29 | 158 | 9.7 | 24.1 | 0.00 | 0.00 | 0.00 | 73 | 1017.6 |
| 20260507172937 | 29 | 85 | 17.7 | 24.1 | 0.00 | 0.00 | 0.00 | 72 | 1017.6 |
| 20260507172434 | 29 | 113 | 6.4 | 24.1 | 0.00 | 0.00 | 0.00 | 72 | 1018.0 |
| 20260507171930 | 29 | 105 | 8.0 | 25.7 | 0.00 | 0.00 | 0.00 | 75 | 1017.8 |
| 20260507171426 | 29 | 128 | 8.0 | 16.1 | 0.00 | 0.00 | 0.00 | 74 | 1017.9 |
| 20260507170924 | 28 | 106 | 8.0 | 16.1 | 0.00 | 0.00 | 0.00 | 72 | 1018.0 |
| 20260507170420 | 29 | 78 | 8.0 | 22.5 | 0.00 | 0.00 | 0.00 | 73 | 1018.3 |
| 20260507165917 | 29 | 173 | 9.7 | 12.9 | 0.00 | 0.00 | 0.00 | 73 | 1018.1 |
| 20260507165412 | 28 | 107 | 6.4 | 14.5 | 0.00 | 0.00 | 0.00 | 73 | 1018.4 |
| 20260507164908 | 28 | 52 | 14.5 | 20.9 | 0.00 | 0.00 | 0.00 | 73 | 1018.3 |
| 20260507164406 | 28 | 83 | 12.9 | 17.7 | 0.00 | 0.00 | 0.00 | 72 | 1018.4 |
| 20260507163903 | 28 | 48 | 9.7 | 22.5 | 0.00 | 0.00 | 0.00 | 75 | 1018.6 |
| 20260507163400 | 28 | 97 | 11.3 | 16.1 | 0.00 | 0.00 | 0.00 | 77 | 1018.7 |
| 20260507162857 | 28 | 93 | 11.3 | 17.7 | 0.00 | 0.00 | 0.00 | 77 | 1018.7 |
| 20260507162352 | 28 | 92 | 12.9 | 17.7 | 0.00 | 0.00 | 0.00 | 78 | 1018.9 |
| 20260507161850 | 27 | 124 | 9.7 | 16.1 | 0.00 | 0.00 | 0.00 | 81 | 1018.8 |
| 20260507161346 | 27 | 100 | 9.7 | 16.1 | 0.00 | 0.00 | 0.00 | 83 | 1019.0 |
| 20260507160843 | 27 | 88 | 9.7 | 11.3 | 0.00 | 0.00 | 0.00 | 86 | 1018.9 |
| 20260507160338 | 26 | 91 | 8.0 | 11.3 | 0.00 | 0.00 | 0.00 | 85 | 1019.0 |
| 20260507155835 | 27 | 85 | 9.7 | 14.5 | 0.00 | 0.00 | 0.00 | 82 | 1019.2 |
| 20260507155330 | 27 | 88 | 9.7 | 16.1 | 0.00 | 0.00 | 0.00 | 79 | 1019.0 |
| 20260507154827 | 27 | 59 | 9.7 | 16.1 | 0.00 | 0.00 | 0.00 | 79 | 1019.1 |
| 20260507154325 | 27 | 102 | 8.0 | 20.9 | 0.00 | 0.00 | 0.00 | 81 | 1019.1 |
| 20260507153821 | 28 | 118 | 6.4 | 12.9 | 0.00 | 0.00 | 0.00 | 79 | 1019.1 |
| 20260507153318 | 28 | 117 | 8.0 | 16.1 | 0.00 | 0.00 | 0.00 | 79 | 1019.3 |
| 20260507152815 | 27 | 91 | 8.0 | 11.3 | 0.00 | 0.00 | 0.00 | 82 | 1019.2 |
| 20260507152311 | 27 | 147 | 8.0 | 14.5 | 0.00 | 0.00 | 0.00 | 81 | 1019.0 |
| 20260507151807 | 28 | 87 | 11.3 | 17.7 | 0.00 | 0.00 | 0.00 | 78 | 1019.1 |
| 20260507151303 | 28 | 98 | 9.7 | 12.9 | 0.00 | 0.00 | 0.00 | 77 | 1019.2 |
| 20260507150800 | 28 | 174 | 6.4 | 20.9 | 0.00 | 0.00 | 0.00 | 77 | 1019.2 |
| 20260507150257 | 28 | 148 | 9.7 | 14.5 | 0.00 | 0.00 | 0.00 | 76 | 1019.0 |
| 20260507145753 | 28 | 74 | 8.0 | 16.1 | 0.00 | 0.00 | 0.00 | 74 | 1019.3 |
| 20260507145250 | 28 | 8 | 6.4 | 16.1 | 0.00 | 0.00 | 0.00 | 76 | 1019.2 |
| 20260507144747 | 28 | 101 | 8.0 | 20.9 | 0.00 | 0.00 | 0.00 | 75 | 1019.2 |
| 20260507144244 | 28 | 124 | 9.7 | 20.9 | 0.00 | 0.00 | 0.00 | 73 | 1019.2 |
| 20260507143740 | 28 | 88 | 11.3 | 22.5 | 0.00 | 0.00 | 0.00 | 75 | 1019.2 |
| 20260507143238 | 28 | 108 | 9.7 | 20.9 | 0.00 | 0.00 | 0.00 | 74 | 1019.5 |
| 20260507142734 | 28 | 74 | 8.0 | 12.9 | 0.00 | 0.00 | 0.00 | 74 | 1019.2 |
| 20260507142230 | 28 | 51 | 6.4 | 12.9 | 0.00 | 0.00 | 0.00 | 75 | 1019.5 |
| 20260507141727 | 28 | 104 | 9.7 | 16.1 | 0.00 | 0.00 | 0.00 | 75 | 1019.2 |
| 20260507141224 | 28 | 84 | 14.5 | 22.5 | 0.00 | 0.00 | 0.00 | 75 | 1019.5 |
| 20260507140720 | 28 | 104 | 19.3 | 22.5 | 0.00 | 0.00 | 0.00 | 75 | 1019.5 |
| 20260507140218 | 28 | 82 | 12.9 | 16.1 | 0.00 | 0.00 | 0.00 | 75 | 1019.5 |
| 20260507135714 | 28 | 117 | 11.3 | 17.7 | 0.00 | 0.00 | 0.00 | 75 | 1019.2 |
| 20260507135212 | 27 | 83 | 11.3 | 16.1 | 0.00 | 0.00 | 0.00 | 79 | 1019.4 |
| 20260507134708 | 27 | 116 | 11.3 | 17.7 | 0.00 | 0.00 | 0.00 | 79 | 1019.4 |
| 20260507134204 | 27 | 76 | 11.3 | 20.9 | 0.00 | 0.00 | 0.00 | 79 | 1019.3 |
| 20260507133700 | 28 | 77 | 14.5 | 22.5 | 0.00 | 0.00 | 0.00 | 77 | 1019.1 |
| 20260507133158 | 27 | 195 | 14.5 | 22.5 | 0.00 | 0.00 | 0.00 | 78 | 1019.1 |
| 20260507132655 | 27 | 114 | 14.5 | 27.4 | 0.00 | 0.00 | 0.00 | 79 | 1019.2 |
| 20260507132151 | 27 | 107 | 6.4 | 16.1 | 0.00 | 0.00 | 0.00 | 81 | 1019.0 |
| 20260507131648 | 27 | 139 | 9.7 | 17.7 | 0.00 | 0.00 | 0.00 | 82 | 1019.0 |
| 20260507131145 | 27 | 92 | 6.4 | 24.1 | 0.00 | 0.00 | 0.00 | 82 | 1018.8 |
| 20260507130642 | 26 | 99 | 6.4 | 9.7 | 0.00 | 0.00 | 0.00 | 84 | 1019.0 |
| 20260507130140 | 26 | 156 | 6.4 | 9.7 | 0.00 | 0.00 | 0.00 | 84 | 1019.0 |
| 20260507125638 | 26 | 106 | 8.0 | 11.3 | 0.00 | 0.00 | 0.00 | 83 | 1019.1 |
| 20260507125136 | 26 | 59 | 4.8 | 16.1 | 0.00 | 0.00 | 0.00 | 83 | 1019.1 |
| 20260507124631 | 27 | 76 | 11.3 | 16.1 | 0.00 | 0.00 | 0.00 | 82 | 1019.0 |
| 20260507124129 | 27 | 245 | 9.7 | 17.7 | 0.00 | 0.00 | 0.00 | 82 | 1019.1 |
| 20260507123628 | 27 | 64 | 6.4 | 16.1 | 0.00 | 0.00 | 0.00 | 83 | 1018.9 |
| 20260507123124 | 27 | 79 | 11.3 | 16.1 | 0.00 | 0.00 | 0.00 | 85 | 1018.9 |
| 20260507122620 | 26 | 77 | 11.3 | 16.1 | 0.00 | 0.00 | 0.00 | 87 | 1018.7 |
| 20260507122115 | 26 | 76 | 4.8 | 11.3 | 0.00 | 0.00 | 0.00 | 88 | 1018.8 |
| 20260507121612 | 26 | 95 | 8.0 | 14.5 | 0.00 | 0.00 | 0.00 | 88 | 1018.7 |
| 20260507121108 | 26 | 93 | 8.0 | 11.3 | 0.00 | 0.00 | 0.00 | 87 | 1018.6 |
| 20260507120604 | 26 | 80 | 6.4 | 11.3 | 0.00 | 0.00 | 0.00 | 87 | 1018.4 |
| 20260507120101 | 26 | 92 | 4.8 | 6.4 | 0.00 | 0.00 | 0.00 | 88 | 1018.6 |
| 20260507115557 | 26 | 101 | 6.4 | 11.3 | 0.00 | 0.00 | 0.00 | 88 | 1018.6 |
| 20260507115053 | 26 | 57 | 8.0 | 16.1 | 0.00 | 0.00 | 0.00 | 88 | 1018.3 |
| 20260507114549 | 26 | 135 | 6.4 | 9.7 | 0.00 | 0.00 | 0.00 | 89 | 1018.5 |
| 20260507114047 | 26 | 84 | 6.4 | 9.7 | 0.00 | 0.00 | 0.00 | 88 | 1018.3 |
| 20260507113543 | 26 | 63 | 8.0 | 9.7 | 0.00 | 0.00 | 0.00 | 89 | 1018.4 |
| 20260507113041 | 25 | 67 | 4.8 | 9.7 | 0.00 | 0.00 | 0.00 | 90 | 1018.3 |
| 20260507112538 | 26 | 53 | 6.4 | 9.7 | 0.00 | 0.00 | 0.00 | 89 | 1018.3 |
| 20260507112035 | 26 | 61 | 3.2 | 6.4 | 0.00 | 0.00 | 0.00 | 90 | 1018.1 |
| 20260507111532 | 26 | 90 | 3.2 | 11.3 | 0.00 | 0.00 | 0.00 | 89 | 1018.0 |
| 20260507111029 | 26 | 77 | 1.6 | 4.8 | 0.00 | 0.00 | 0.00 | 91 | 1018.2 |
| 20260507110525 | 25 | 85 | 0.0 | 1.6 | 0.00 | 0.00 | 0.00 | 93 | 1018.1 |
| 20260507110022 | 25 | 59 | 0.0 | 1.6 | 0.00 | 0.00 | 0.00 | 93 | 1018.3 |
| 20260507105519 | 25 | 80 | 1.6 | 3.2 | 0.00 | 0.00 | 0.00 | 93 | 1018.0 |
| 20260507105015 | 25 | 117 | 1.6 | 1.6 | 0.00 | 0.00 | 0.00 | 94 | 1018.2 |
| 20260507104513 | 25 | 127 | 1.6 | 3.2 | 0.00 | 0.00 | 0.00 | 94 | 1018.1 |
| 20260507104008 | 25 | 84 | 1.6 | 3.2 | 0.00 | 0.00 | 0.00 | 94 | 1017.9 |
| 20260507103505 | 25 | 123 | 1.6 | 3.2 | 0.00 | 0.00 | 0.00 | 94 | 1018.0 |
| 20260507103001 | 24 | 85 | 1.6 | 1.6 | 0.00 | 0.00 | 0.00 | 95 | 1018.0 |
| 20260507102458 | 24 | 88 | 1.6 | 3.2 | 0.00 | 0.00 | 0.00 | 95 | 1018.2 |
| 20260507101954 | 24 | 195 | 1.6 | 3.2 | 0.00 | 0.00 | 0.00 | 95 | 1018.0 |
| 20260507101449 | 23 | 114 | 0.0 | 0.0 | 0.00 | 0.00 | 0.00 | 95 | 1017.8 |
| 20260507100946 | 23 | 190 | 0.0 | 3.2 | 0.00 | 0.00 | 0.00 | 95 | 1017.6 |
| 20260507100443 | 23 | 216 | 0.0 | 1.6 | 0.00 | 0.00 | 0.00 | 95 | 1017.7 |
| 20260507095942 | 23 | 228 | 1.6 | 3.2 | 0.00 | 0.00 | 0.00 | 95 | 1017.8 |
| 20260507095439 | 23 | 245 | 0.0 | 0.0 | 0.00 | 0.00 | 0.00 | 95 | 1017.7 |
| 20260507094936 | 23 | 261 | 0.0 | 0.0 | 0.00 | 0.00 | 0.00 | 95 | 1017.9 |
| 20260507094432 | 23 | 254 | 0.0 | 0.0 | 0.00 | 0.00 | 0.00 | 95 | 1017.9 |
| 20260507093929 | 23 | 231 | 1.6 | 3.2 | 0.00 | 0.00 | 0.00 | 94 | 1017.9 |
| 20260507093427 | 23 | 112 | 0.0 | 0.0 | 0.00 | 0.00 | 0.00 | 94 | 1017.8 |
| 20260507092925 | 23 | 112 | 0.0 | 1.6 | 0.00 | 0.00 | 0.00 | 94 | 1017.7 |
| 20260507092421 | 23 | 111 | 0.0 | 0.0 | 0.00 | 0.00 | 0.00 | 94 | 1017.7 |
| 20260507091918 | 23 | 113 | 0.0 | 0.0 | 0.00 | 0.00 | 0.00 | 94 | 1017.8 |
| 20260507091414 | 23 | 113 | 0.0 | 1.6 | 0.00 | 0.00 | 0.00 | 94 | 1017.9 |
| 20260507090910 | 23 | 112 | 0.0 | 0.0 | 0.00 | 0.00 | 0.00 | 94 | 1017.8 |
| 20260507090407 | 23 | 114 | 0.0 | 1.6 | 0.00 | 0.00 | 0.00 | 93 | 1017.8 |
| 20260507085903 | 23 | 116 | 0.0 | 0.0 | 0.00 | 0.00 | 0.00 | 94 | 1017.9 |
| 20260507085400 | 23 | 116 | 0.0 | 1.6 | 0.00 | 0.00 | 0.00 | 93 | 1017.9 |
| 20260507084857 | 23 | 115 | 0.0 | 0.0 | 0.00 | 0.00 | 0.00 | 93 | 1017.9 |
| 20260507084354 | 23 | 115 | 0.0 | 0.0 | 0.00 | 0.00 | 0.00 | 93 | 1017.8 |
| 20260507083851 | 24 | 116 | 0.0 | 0.0 | 0.00 | 0.00 | 0.00 | 93 | 1017.7 |
| 20260507083347 | 24 | 115 | 0.0 | 0.0 | 0.00 | 0.00 | 0.00 | 93 | 1017.7 |
| 20260507082844 | 24 | 126 | 0.0 | 0.0 | 0.00 | 0.00 | 0.00 | 92 | 1017.6 |
| 20260507082339 | 25 | 131 | 0.0 | 1.6 | 0.00 | 0.00 | 0.00 | 93 | 1017.6 |
| 20260507081837 | 25 | 162 | 3.2 | 3.2 | 0.00 | 0.00 | 0.00 | 93 | 1017.4 |
| 20260507081332 | 24 | 112 | 1.6 | 3.2 | 0.00 | 0.00 | 0.00 | 93 | 1017.6 |
| 20260507080830 | 24 | 110 | 0.0 | 1.6 | 0.00 | 0.00 | 0.00 | 93 | 1017.7 |
| 20260507080326 | 24 | 96 | 0.0 | 0.0 | 0.00 | 0.00 | 0.00 | 93 | 1017.6 |
| 20260507075821 | 25 | 46 | 1.6 | 3.2 | 0.00 | 0.00 | 0.00 | 92 | 1017.6 |
| 20260507075317 | 25 | 115 | 3.2 | 3.2 | 0.00 | 0.00 | 0.00 | 92 | 1017.5 |
| 20260507074814 | 25 | 96 | 1.6 | 3.2 | 0.00 | 0.00 | 0.00 | 92 | 1017.6 |
| 20260507074312 | 25 | 97 | 0.0 | 3.2 | 0.00 | 0.00 | 0.00 | 92 | 1017.6 |
| 20260507073809 | 25 | 143 | 1.6 | 3.2 | 0.00 | 0.00 | 0.00 | 92 | 1017.5 |
| 20260507073306 | 25 | 111 | 1.6 | 4.8 | 0.00 | 0.00 | 0.00 | 92 | 1017.8 |
| 20260507072803 | 25 | 69 | 3.2 | 4.8 | 0.00 | 0.00 | 0.00 | 92 | 1017.6 |
| 20260507072300 | 25 | 133 | 3.2 | 4.8 | 0.00 | 0.00 | 0.00 | 92 | 1017.9 |
| 20260507071757 | 25 | 89 | 1.6 | 1.6 | 0.00 | 0.00 | 0.00 | 92 | 1017.7 |
| 20260507071254 | 25 | 70 | 1.6 | 3.2 | 0.00 | 0.00 | 0.00 | 92 | 1017.8 |
| 20260507070751 | 25 | 50 | 3.2 | 4.8 | 0.00 | 0.00 | 0.00 | 92 | 1017.8 |
| 20260507070247 | 25 | 78 | 0.0 | 4.8 | 0.00 | 0.00 | 0.00 | 92 | 1018.0 |
| 20260507065744 | 25 | 50 | 1.6 | 3.2 | 0.00 | 0.00 | 0.00 | 92 | 1017.9 |
| 20260507065241 | 25 | 53 | 1.6 | 1.6 | 0.00 | 0.00 | 0.00 | 92 | 1017.8 |
| 20260507064738 | 25 | 66 | 0.0 | 4.8 | 0.00 | 0.00 | 0.00 | 92 | 1018.1 |
| 20260507064237 | 25 | 139 | 3.2 | 4.8 | 0.00 | 0.00 | 0.00 | 92 | 1018.0 |
| 20260507063734 | 25 | 155 | 1.6 | 6.4 | 0.00 | 0.00 | 0.00 | 92 | 1018.0 |
| 20260507063231 | 25 | 118 | 4.8 | 4.8 | 0.00 | 0.00 | 0.00 | 91 | 1018.3 |
| 20260507062728 | 25 | 167 | 3.2 | 4.8 | 0.00 | 0.00 | 0.00 | 91 | 1018.1 |
| 20260507062225 | 25 | 107 | 3.2 | 9.7 | 0.00 | 0.00 | 0.00 | 92 | 1018.2 |
| 20260507061723 | 25 | 84 | 8.0 | 9.7 | 0.00 | 0.00 | 0.00 | 92 | 1018.2 |
| 20260507061221 | 25 | 193 | 3.2 | 4.8 | 0.00 | 0.00 | 0.00 | 92 | 1018.3 |
| 20260507060719 | 25 | 89 | 1.6 | 3.2 | 0.00 | 0.00 | 0.00 | 92 | 1018.4 |
| 20260507060215 | 25 | 137 | 0.0 | 4.8 | 0.00 | 0.00 | 0.00 | 93 | 1018.4 |
| 20260507055711 | 25 | 80 | 3.2 | 3.2 | 0.00 | 0.00 | 0.00 | 93 | 1018.4 |
| 20260507055207 | 25 | 183 | 0.0 | 0.0 | 0.00 | 0.00 | 0.00 | 92 | 1018.5 |
| 20260507054703 | 25 | 188 | 0.0 | 3.2 | 0.00 | 0.00 | 0.00 | 93 | 1018.6 |
| 20260507054200 | 25 | 84 | 1.6 | 3.2 | 0.00 | 0.00 | 0.00 | 93 | 1018.4 |
| 20260507053658 | 25 | 78 | 1.6 | 4.8 | 0.00 | 0.00 | 0.00 | 93 | 1018.6 |
| 20260507053155 | 25 | 95 | 1.6 | 4.8 | 0.00 | 0.00 | 0.00 | 94 | 1018.6 |
| 20260507052654 | 25 | 149 | 3.2 | 3.2 | 0.00 | 0.00 | 0.00 | 94 | 1018.9 |
| 20260507052150 | 25 | 296 | 0.0 | 0.0 | 0.00 | 0.00 | 0.00 | 94 | 1018.9 |
| 20260507051647 | 25 | 296 | 0.0 | 0.0 | 0.00 | 0.00 | 0.00 | 94 | 1018.9 |
| 20260507051144 | 25 | 296 | 0.0 | 0.0 | 0.00 | 0.00 | 0.00 | 94 | 1019.0 |
| 20260507050641 | 25 | 296 | 0.0 | 0.0 | 0.00 | 0.00 | 0.00 | 94 | 1019.4 |
| 20260507050138 | 25 | 295 | 0.0 | 0.0 | 0.00 | 0.00 | 0.00 | 94 | 1019.2 |
| 20260507045635 | 25 | 296 | 0.0 | 0.0 | 0.00 | 0.00 | 0.00 | 93 | 1019.6 |
| 20260507045131 | 25 | 273 | 0.0 | 1.6 | 0.00 | 0.00 | 0.00 | 93 | 1019.5 |
| 20260507044628 | 25 | 259 | 1.6 | 3.2 | 0.00 | 0.00 | 0.00 | 93 | 1019.6 |
| 20260507044125 | 25 | 257 | 1.6 | 3.2 | 0.00 | 0.00 | 0.00 | 93 | 1019.6 |
| 20260507043621 | 25 | 243 | 3.2 | 3.2 | 0.00 | 0.00 | 0.00 | 92 | 1019.7 |
| 20260507043118 | 25 | 234 | 0.0 | 3.2 | 0.00 | 0.00 | 0.00 | 93 | 1019.7 |
| 20260507042614 | 25 | 231 | 3.2 | 3.2 | 0.00 | 0.00 | 0.00 | 92 | 1019.8 |
| 20260507042110 | 25 | 206 | 1.6 | 3.2 | 0.00 | 0.00 | 0.00 | 92 | 1019.9 |
| 20260507041607 | 25 | 168 | 0.0 | 1.6 | 0.00 | 0.00 | 0.00 | 91 | 1020.0 |
| 20260507041104 | 25 | 167 | 0.0 | 0.0 | 0.00 | 0.00 | 0.00 | 91 | 1019.8 |
| 20260507040600 | 25 | 167 | 0.0 | 1.6 | 0.00 | 0.00 | 0.00 | 91 | 1020.0 |
| 20260507040057 | 25 | 135 | 0.0 | 1.6 | 0.00 | 0.25 | 0.25 | 91 | 1019.9 |
| 20260507035552 | 25 | 139 | 1.6 | 1.6 | 0.00 | 0.25 | 0.25 | 91 | 1020.1 |
| 20260507035049 | 25 | 119 | 0.0 | 1.6 | 0.00 | 0.25 | 0.25 | 91 | 1020.0 |
| 20260507034546 | 25 | 84 | 0.0 | 0.0 | 0.00 | 0.25 | 0.25 | 91 | 1020.1 |
| 20260507034044 | 25 | 65 | 1.6 | 3.2 | 0.00 | 0.25 | 0.25 | 92 | 1020.0 |
| 20260507033542 | 25 | 90 | 3.2 | 3.2 | 0.00 | 0.25 | 0.25 | 92 | 1020.2 |
| 20260507033039 | 25 | 84 | 1.6 | 3.2 | 0.00 | 0.25 | 0.25 | 92 | 1020.1 |
| 20260507032535 | 25 | 62 | 3.2 | 4.8 | 0.00 | 0.25 | 0.25 | 92 | 1020.1 |
| 20260507032032 | 25 | 157 | 0.0 | 3.2 | 0.00 | 0.25 | 0.25 | 92 | 1020.0 |
| 20260507031528 | 25 | 189 | 1.6 | 3.2 | 0.00 | 0.25 | 0.25 | 93 | 1020.2 |
| 20260507031026 | 25 | 100 | 1.6 | 4.8 | 0.00 | 0.25 | 0.25 | 93 | 1020.2 |
| 20260507030522 | 25 | 72 | 3.2 | 6.4 | 0.00 | 0.25 | 0.25 | 93 | 1020.0 |
| 20260507030020 | 25 | 86 | 3.2 | 6.4 | 0.00 | 0.25 | 0.25 | 93 | 1020.1 |
| 20260507025516 | 25 | 104 | 4.8 | 6.4 | 0.48 | 0.25 | 0.25 | 94 | 1020.2 |
| 20260507025014 | 25 | 79 | 3.2 | 4.8 | 0.48 | 0.25 | 0.25 | 94 | 1020.1 |
| 20260507024512 | 25 | 344 | 0.0 | 0.0 | 0.00 | 0.18 | 0.18 | 93 | 1020.2 |
| 20260507024008 | 25 | 20 | 0.0 | 0.0 | 0.00 | 0.18 | 0.18 | 93 | 1020.1 |
| 20260507023504 | 25 | 5 | 0.0 | 0.0 | 0.00 | 0.18 | 0.18 | 93 | 1020.2 |
| 20260507023002 | 25 | 214 | 1.6 | 1.6 | 0.00 | 0.18 | 0.18 | 93 | 1020.1 |
| 20260507022459 | 25 | 218 | 3.2 | 3.2 | 0.00 | 0.18 | 0.18 | 93 | 1020.0 |
| 20260507021954 | 25 | 230 | 1.6 | 4.8 | 0.00 | 0.18 | 0.18 | 93 | 1020.1 |
| 20260507021450 | 25 | 231 | 3.2 | 4.8 | 0.00 | 0.18 | 0.18 | 93 | 1020.2 |
| 20260507020947 | 25 | 204 | 1.6 | 3.2 | 0.00 | 0.18 | 0.18 | 93 | 1020.0 |
| 20260507020444 | 25 | 244 | 1.6 | 3.2 | 0.00 | 0.18 | 0.18 | 93 | 1020.1 |
| 20260507015941 | 25 | 250 | 3.2 | 4.8 | 0.00 | 0.18 | 0.18 | 92 | 1020.1 |
| 20260507015439 | 25 | 277 | 0.0 | 3.2 | 0.00 | 0.18 | 0.18 | 93 | 1020.0 |
| 20260507014936 | 25 | 289 | 0.0 | 1.6 | 0.00 | 0.18 | 0.18 | 93 | 1019.9 |
| 20260507014433 | 25 | 318 | 1.6 | 1.6 | 0.00 | 0.18 | 0.18 | 92 | 1019.9 |
| 20260507013929 | 25 | 309 | 1.6 | 3.2 | 0.00 | 0.18 | 0.18 | 91 | 1019.9 |
| 20260507013426 | 25 | 248 | 1.6 | 3.2 | 0.13 | 0.18 | 0.18 | 91 | 1019.8 |
| 20260507012923 | 25 | 256 | 0.0 | 3.2 | 0.71 | 0.18 | 0.18 | 91 | 1019.8 |
| 20260507012420 | 25 | 249 | 1.6 | 3.2 | 0.61 | 0.15 | 0.15 | 90 | 1019.8 |
| 20260507011917 | 25 | 288 | 0.0 | 1.6 | 0.00 | 0.05 | 0.05 | 89 | 1019.8 |
| 20260507011414 | 25 | 333 | 1.6 | 1.6 | 0.00 | 0.05 | 0.05 | 89 | 1019.9 |
| 20260507010913 | 25 | 290 | 0.0 | 3.2 | 0.00 | 0.05 | 0.05 | 89 | 1019.8 |
| 20260507010409 | 25 | 279 | 0.0 | 3.2 | 0.00 | 0.05 | 0.05 | 88 | 1019.6 |
| 20260507005906 | 25 | 284 | 3.2 | 3.2 | 0.00 | 0.05 | 0.05 | 88 | 1019.6 |
| 20260507005403 | 25 | 288 | 1.6 | 3.2 | 0.00 | 0.05 | 0.05 | 86 | 1019.4 |
| 20260507004900 | 26 | 305 | 0.0 | 1.6 | 0.00 | 0.05 | 0.05 | 84 | 1019.4 |
| 20260507004357 | 27 | 300 | 0.0 | 3.2 | 0.00 | 0.05 | 0.05 | 81 | 1019.4 |
| 20260507003854 | 27 | 187 | 0.0 | 0.0 | 0.00 | 0.05 | 0.05 | 80 | 1019.3 |
| 20260507003349 | 27 | 85 | 1.6 | 3.2 | 0.00 | 0.05 | 0.05 | 80 | 1019.4 |
| 20260507002845 | 27 | 107 | 0.0 | 3.2 | 0.00 | 0.05 | 0.05 | 80 | 1019.2 |
| 20260507002341 | 27 | 137 | 3.2 | 4.8 | 0.00 | 0.05 | 0.05 | 80 | 1019.2 |
| 20260507001838 | 27 | 119 | 1.6 | 4.8 | 0.00 | 0.05 | 0.05 | 80 | 1019.0 |
| 20260507001335 | 27 | 142 | 3.2 | 3.2 | 0.00 | 0.05 | 0.05 | 80 | 1019.0 |
| 20260507000831 | 27 | 154 | 1.6 | 3.2 | 0.00 | 0.05 | 0.05 | 80 | 1019.2 |
| 20260507000328 | 27 | 117 | 1.6 | 3.2 | 0.00 | 0.05 | 0.05 | 80 | 1019.1 |
| 20260506235824 | 27 | 101 | 1.6 | 3.2 | 0.00 | 0.05 | 0.05 | 80 | 1018.9 |
| 20260506235320 | 27 | 99 | 1.6 | 4.8 | 0.00 | 0.05 | 0.05 | 80 | 1019.1 |
| 20260506234816 | 27 | 116 | 3.2 | 3.2 | 0.00 | 0.05 | 0.05 | 81 | 1018.8 |
| 20260506234314 | 27 | 205 | 1.6 | 4.8 | 0.00 | 0.05 | 0.05 | 80 | 1018.9 |
| 20260506233812 | 27 | 104 | 1.6 | 3.2 | 0.00 | 0.05 | 0.05 | 80 | 1018.7 |
| 20260506233307 | 27 | 186 | 0.0 | 4.8 | 0.00 | 0.05 | 0.05 | 80 | 1018.7 |
| 20260506232804 | 27 | 135 | 3.2 | 4.8 | 0.00 | 0.05 | 0.05 | 80 | 1018.7 |
| 20260506232300 | 27 | 126 | 4.8 | 6.4 | 0.00 | 0.05 | 0.05 | 79 | 1018.5 |
| 20260506231757 | 28 | 115 | 3.2 | 6.4 | 0.00 | 0.05 | 0.05 | 79 | 1018.4 |
| 20260506231255 | 27 | 132 | 3.2 | 6.4 | 0.00 | 0.05 | 0.05 | 80 | 1018.4 |
| 20260506230752 | 27 | 103 | 4.8 | 6.4 | 0.00 | 0.05 | 0.05 | 80 | 1018.4 |
| 20260506230249 | 27 | 130 | 4.8 | 4.8 | 0.00 | 0.05 | 0.05 | 80 | 1018.4 |
| 20260506225745 | 27 | 156 | 3.2 | 6.4 | 0.00 | 0.05 | 0.05 | 79 | 1018.4 |
| 20260506225242 | 27 | 131 | 4.8 | 6.4 | 0.00 | 0.05 | 0.05 | 79 | 1018.3 |
| 20260506224738 | 28 | 222 | 8.0 | 9.7 | 0.00 | 0.05 | 0.05 | 79 | 1018.3 |
| 20260506224236 | 28 | 114 | 3.2 | 6.4 | 0.00 | 0.05 | 0.05 | 79 | 1018.1 |
| 20260506223732 | 27 | 106 | 8.0 | 12.9 | 0.00 | 0.05 | 0.05 | 78 | 1018.2 |
| 20260506223228 | 28 | 105 | 9.7 | 12.9 | 0.00 | 0.05 | 0.05 | 77 | 1017.9 |
| 20260506222725 | 28 | 116 | 6.4 | 11.3 | 0.00 | 0.05 | 0.05 | 77 | 1017.8 |
| 20260506222220 | 28 | 139 | 11.3 | 14.5 | 0.00 | 0.05 | 0.05 | 76 | 1017.6 |
| 20260506221719 | 28 | 177 | 12.9 | 14.5 | 0.00 | 0.05 | 0.05 | 76 | 1017.8 |
| 20260506221217 | 28 | 125 | 11.3 | 20.9 | 0.00 | 0.05 | 0.05 | 76 | 1017.9 |
| 20260506220714 | 29 | 82 | 8.0 | 16.1 | 0.00 | 0.05 | 0.05 | 74 | 1017.7 |
| 20260506220208 | 28 | 122 | 4.8 | 9.7 | 0.00 | 0.05 | 0.05 | 74 | 1017.7 |
| 20260506215705 | 28 | 177 | 6.4 | 12.9 | 0.00 | 0.05 | 0.05 | 75 | 1017.6 |
| 20260506215200 | 28 | 153 | 6.4 | 11.3 | 0.00 | 0.05 | 0.05 | 74 | 1017.5 |
| 20260506214658 | 28 | 121 | 9.7 | 14.5 | 0.00 | 0.05 | 0.05 | 73 | 1017.9 |
| 20260506214155 | 28 | 189 | 8.0 | 11.3 | 0.00 | 0.05 | 0.05 | 75 | 1017.7 |
| 20260506213653 | 28 | 114 | 11.3 | 14.5 | 0.00 | 0.05 | 0.05 | 75 | 1017.9 |
| 20260506213150 | 28 | 104 | 6.4 | 14.5 | 0.00 | 0.05 | 0.05 | 75 | 1017.5 |
| 20260506212647 | 28 | 92 | 12.9 | 17.7 | 0.00 | 0.05 | 0.05 | 77 | 1017.7 |
| 20260506212142 | 28 | 101 | 11.3 | 16.1 | 0.00 | 0.05 | 0.05 | 76 | 1017.6 |
| 20260506211638 | 28 | 143 | 12.9 | 17.7 | 0.00 | 0.05 | 0.05 | 75 | 1017.5 |
| 20260506211135 | 28 | 117 | 6.4 | 20.9 | 0.00 | 0.05 | 0.05 | 75 | 1017.6 |
| 20260506210632 | 28 | 165 | 11.3 | 16.1 | 0.00 | 0.05 | 0.05 | 73 | 1017.4 |
| 20260506210128 | 28 | 129 | 8.0 | 12.9 | 0.00 | 0.05 | 0.05 | 75 | 1017.3 |
| 20260506205625 | 28 | 123 | 12.9 | 14.5 | 0.00 | 0.05 | 0.05 | 74 | 1017.5 |
| 20260506205120 | 28 | 68 | 11.3 | 16.1 | 0.00 | 0.05 | 0.05 | 73 | 1017.5 |
| 20260506204618 | 28 | 146 | 9.7 | 17.7 | 0.00 | 0.05 | 0.05 | 73 | 1017.3 |
| 20260506204115 | 29 | 172 | 8.0 | 14.5 | 0.00 | 0.05 | 0.05 | 69 | 1017.3 |
| 20260506203613 | 29 | 128 | 9.7 | 14.5 | 0.00 | 0.05 | 0.05 | 70 | 1017.4 |
| 20260506203109 | 28 | 122 | 8.0 | 12.9 | 0.00 | 0.05 | 0.05 | 72 | 1017.3 |
| 20260506202608 | 28 | 128 | 14.5 | 20.9 | 0.00 | 0.05 | 0.05 | 71 | 1017.4 |
| 20260506202104 | 28 | 122 | 12.9 | 14.5 | 0.00 | 0.05 | 0.05 | 72 | 1017.5 |
| 20260506201601 | 28 | 109 | 11.3 | 17.7 | 0.00 | 0.05 | 0.05 | 73 | 1017.4 |
| 20260506201057 | 29 | 152 | 11.3 | 17.7 | 0.00 | 0.05 | 0.05 | 72 | 1017.4 |
| 20260506200554 | 28 | 132 | 9.7 | 12.9 | 0.00 | 0.05 | 0.05 | 76 | 1017.2 |
| 20260506200051 | 28 | 177 | 6.4 | 14.5 | 0.00 | 0.05 | 0.05 | 76 | 1017.3 |